This is the latest recevied weather packets stored in our database for station/object KF6RAL-6. If no packets are shown the sender has not sent any weather packets the latest 10 day(s).
| Time | Temp. | Humidity | Pressure | Rain* | Wind** | Luminosity | Snow |
|---|---|---|---|---|---|---|---|
| 1777541609 | 8.89° C | 65% | 1017.4 hPa | 0 mm | - | - | - |
| 1777541188 | 8.89° C | 65% | 1017.4 hPa | 0 mm | - | - | - |
| 1777540767 | 9.44° C | 64% | 1017.4 hPa | 0 mm | - | - | - |
| 1777540346 | 9.44° C | 60% | 1017.4 hPa | 0 mm | - | - | - |
| 1777539504 | 9.44° C | 59% | 1017.5 hPa | 0 mm | - | - | - |
| 1777539083 | 9.44° C | 59% | 1017.5 hPa | 0 mm | - | - | - |
| 1777538662 | 9.44° C | 59% | 1017.8 hPa | 0 mm | - | - | - |
| 1777538241 | 9.44° C | 60% | 1017.7 hPa | 0 mm | - | - | - |
| 1777537820 | 9.44° C | 61% | 1017.7 hPa | 0 mm | - | - | - |
| 1777537399 | 9.44° C | 61% | 1017.8 hPa | 0 mm | - | - | - |
| 1777536978 | 9.44° C | 62% | 1017.8 hPa | 0 mm | - | - | - |
| 1777536557 | 9.44° C | 65% | 1017.9 hPa | 0 mm | - | - | - |
| 1777535715 | 9.44° C | 66% | 1017.9 hPa | 0 mm | - | - | - |
| 1777535294 | 8.89° C | 66% | 1017.6 hPa | 0 mm | - | - | - |
| 1777534873 | 8.89° C | 64% | 1017.6 hPa | 0 mm | - | - | - |
| 1777534452 | 9.44° C | 62% | 1017.5 hPa | 0 mm | - | - | - |
| 1777534031 | 10.56° C | 53% | 1017.2 hPa | 0 mm | - | - | - |
| 1777533610 | 10° C | 53% | 1017.2 hPa | 0 mm | - | - | - |
| 1777533189 | 10° C | 54% | 1017.1 hPa | 0 mm | - | - | - |
| 1777532768 | 10° C | 54% | 1017.1 hPa | 0 mm | - | - | - |
| 1777532348 | 10° C | 56% | 1017.1 hPa | 0 mm | - | - | - |
| 1777531926 | 10° C | 55% | 1017.1 hPa | 0 mm | - | - | - |
| 1777531505 | 10° C | 56% | 1017.5 hPa | 0 mm | - | - | - |
| 1777531084 | 10° C | 56% | 1017.5 hPa | 0 mm | - | - | - |
| 1777530663 | 10° C | 60% | 1017.5 hPa | 0 mm | - | - | - |
* Rain latest hour (hover to see other rain measurements)
** Current wind speed in m/s (hover to see current wind gust speed)